^^
Saratoga-Weather Station Historical Data
Daily Summary for August 13, 2021 Units:  Metric    English   Both
Daily Weekly Monthly Yearly Custom
  High: Low: Average:
Temperature: -4.7 °C -5.6 °C -5.2 °C
Dew Point: -9.2 °C -10.2 °C -9.6 °C
Humidity: 72% 70% 71%
Wind Speed: 17.7km/h 3.2km/h 7.3km/h
Wind Gust: 19.3km/h - -
Wind- - East
Pressure: 1032.5 hPa 1031.2 hPa -
Precipitation: 0.0 mm    
Historical Graphs
 
 
Tabular Data for August 13, 2021
Time Temperature Dew Point Pressure Wind Wind Speed Wind Gust Humidity Rainfall Rate (Hourly) solar
00:02 -4.7 °C -9.3 °C 1031.5 hPa ESE 6.4 km/h 17.7 km/h 70% 0.0 mm 0 W/m2
00:07 -4.8 °C -9.4 °C 1031.2 hPa ESE 6.4 km/h 11.3 km/h 70% 0.0 mm 0 W/m2
00:12 -4.8 °C -9.2 °C 1031.5 hPa ESE 4.7 km/h 11.3 km/h 71% 0.0 mm 0 W/m2
00:17 -4.8 °C -9.2 °C 1031.5 hPa ESE 3.2 km/h 12.9 km/h 71% 0.0 mm 0 W/m2
00:22 -4.9 °C -9.3 °C 1031.5 hPa ENE 13 km/h 16.1 km/h 71% 0.0 mm 0 W/m2
00:27 -4.9 °C -9.3 °C 1031.5 hPa NE 7.9 km/h 16.1 km/h 71% 0.0 mm 0 W/m2
00:32 -4.9 °C -9.3 °C 1031.5 hPa SE 7.9 km/h 14.5 km/h 71% 0.0 mm 0 W/m2
00:38 -5 °C -9.4 °C 1031.5 hPa East 9.7 km/h 17.7 km/h 71% 0.0 mm 0 W/m2
00:43 -5 °C -9.4 °C 1031.8 hPa East 9.7 km/h 9.7 km/h 71% 0.0 mm 0 W/m2
00:48 -5.1 °C -9.5 °C 1031.8 hPa SSE 7.9 km/h 8 km/h 71% 0.0 mm 0 W/m2
00:53 -5.2 °C -9.6 °C 1031.8 hPa ESE 4.7 km/h 4.8 km/h 71% 0.0 mm 0 W/m2
00:58 -5.2 °C -9.6 °C 1031.8 hPa ESE 6.4 km/h 19.3 km/h 71% 0.0 mm 0 W/m2
01:03 -5.2 °C -9.6 °C 1031.8 hPa ENE 9.7 km/h 16.1 km/h 71% 0.0 mm 0 W/m2
01:08 -5.2 °C -9.5 °C 1031.8 hPa East 6.4 km/h 16.1 km/h 72% 0.0 mm 0 W/m2
01:13 -5.3 °C -9.7 °C 1031.8 hPa NE 4.7 km/h 17.7 km/h 71% 0.0 mm 0 W/m2
01:18 -5.3 °C -9.7 °C 1032.2 hPa ENE 4.7 km/h 14.5 km/h 71% 0.0 mm 0 W/m2
01:23 -5.3 °C -9.7 °C 1032.2 hPa SE 3.2 km/h 17.7 km/h 71% 0.0 mm 0 W/m2
01:28 -5.3 °C -9.7 °C 1032.2 hPa SE 17.7 km/h 17.7 km/h 71% 0.0 mm 0 W/m2
01:33 -5.3 °C -9.7 °C 1032.2 hPa ESE 6.4 km/h 11.3 km/h 71% 0.0 mm 0 W/m2
01:38 -5.4 °C -9.8 °C 1032.2 hPa East 6.4 km/h 19.3 km/h 71% 0.0 mm 0 W/m2
01:43 -5.4 °C -9.8 °C 1032.2 hPa NE 7.9 km/h 17.7 km/h 71% 0.0 mm 0 W/m2
01:48 -5.4 °C -9.8 °C 1032.2 hPa ENE 4.7 km/h 14.5 km/h 71% 0.0 mm 0 W/m2
01:53 -5.4 °C -9.8 °C 1032.5 hPa East 9.7 km/h 14.5 km/h 71% 0.0 mm 0 W/m2
01:58 -5.4 °C -10 °C 1032.5 hPa ENE 4.7 km/h 12.9 km/h 70% 0.0 mm 0 W/m2
02:03 -5.4 °C -10 °C 1032.5 hPa ENE 7.9 km/h 12.9 km/h 70% 0.0 mm 0 W/m2
02:08 -5.4 °C -10 °C 1032.5 hPa ESE 4.7 km/h 12.9 km/h 70% 0.0 mm 0 W/m2
02:13 -5.5 °C -10.1 °C 1032.5 hPa NE 9.7 km/h 14.5 km/h 70% 0.0 mm 0 W/m2
02:18 -5.6 °C -10.2 °C 1032.5 hPa ESE 3.2 km/h 16.1 km/h 70% 0.0 mm 0 W/m2
02:23 -5.6 °C -10.2 °C 1032.5 hPa ENE 11.1 km/h 11.3 km/h 70% 0.0 mm 0 W/m2
Juneau County Weather
Compliments of Weather Underground - 4 mb